(194609) = 1995 BE9 = 2001 XX133

Discovered at Socorro on 2001-12-14 by LINEAR.

Orbit

Orbit type: Main Belt

Note: WebGL enabled browser required.

epoch2023-09-13.0
epoch JD2460200.5
perihelion date2020-03-25.75698
perihelion JD2458934.25698
argument of perihelion (°)353.91552
ascending node (°)83.23157
inclination (°)2.37791
eccentricity0.1566432
perihelion distance (AU)2.0010456
Tisserand w.r.t. Jupiter3.5
ΔV w.r.t. Earth (km/sec)8.8
semimajor axis (AU)2.3727153
mean anomaly (°)341.46993
mean daily motion (°/day)0.26967170
aphelion distance (AU)2.744
period (years)3.65
P-vector [x]0.22235830
P-vector [y]0.89625315
P-vector [z]0.38377999
Q-vector [x]-0.97409406
Q-vector [y]0.18758933
Q-vector [z]0.12629729
absolute magnitude17.39
phase slope0.15
uncertainty0
referenceMPEC 2024-A48
observations used351
oppositions15
arc length (days)10566
first opposition used1995
last opposition used2024
residual rms (arc-secs)0.74
perturbers coarse indicatorM-v
perturbers precise indicator003Ek
first observation date used1995-01-29.0
last observation date used2024-01-03.0
computer nameMPCLINUX
JD of orbit computation2456819.530331
perihelion JD uncertainty (days)5.0447E-05
argument of perihelion uncertainty (°)8.5148E-05
ascending node uncertainty (°)8.3674E-05
inclination uncertainty (°)3.3079E-06
eccentricity uncertainty 3.7937E-08
perihelion distance uncertainty (AU)9.2479E-08
Minimum Orbit Intersection Distances (in AU)
for orbit epoch: 2460200.5, reference: E2024-A48
Mercury1.69426
Venus1.28054
Earth1.01519
Mars0.428
Jupiter2.49369
Saturn7.03374
Uranus16.0297
Neptune27.5926

Observations

360 total observations over interval: 1995 01 29.27151 – 2024 01 03.330951
These data are available for download (format description).

Date (UT) J2000 RA J2000 Dec Magn Location Ref
1995 01 29.27151 09 25 19.15 +18 43 10.2 19.8 V 691 – Steward Observatory, Kitt Peak-Spacewatch MPC 24832
1995 01 29.31860 09 25 16.24 +18 43 27.1   691 – Steward Observatory, Kitt Peak-Spacewatch MPC 24832
1995 02 04.20712 09 19 17.30 +19 17 16.7   691 – Steward Observatory, Kitt Peak-Spacewatch MPC 24832
1995 02 04.23156 09 19 15.75 +19 17 24.9 19.3 V 691 – Steward Observatory, Kitt Peak-Spacewatch MPC 24832
1995 02 04.25588 09 19 14.19 +19 17 32.8   691 – Steward Observatory, Kitt Peak-Spacewatch MPC 24832
1999 03 21.320710 12 34 35.524 +00 33 03.81 20.47 V 645 – Apache Point-Sloan Digital Sky Survey MPS 211722
1999 03 21.324182 12 34 35.316 +00 33 05.18 21.23   645 – Apache Point-Sloan Digital Sky Survey MPS 211722
1999 03 22.317380 12 33 39.174 +00 39 04.74 21.17 V 645 – Apache Point-Sloan Digital Sky Survey MPS 211722
1999 03 22.320852 12 33 38.968 +00 39 06.03 22.14   645 – Apache Point-Sloan Digital Sky Survey MPS 211722
2001 11 20.36193 05 01 00.64 +21 29 25.7 19.0   704 – Lincoln Laboratory ETS, New Mexico MPS 45293
2001 11 20.37659 05 00 59.81 +21 29 26.4 19.7   704 – Lincoln Laboratory ETS, New Mexico MPS 45293
2001 11 20.39125 05 00 59.07 +21 29 24.2 20.4   704 – Lincoln Laboratory ETS, New Mexico MPS 45293
2001 11 20.40592 05 00 58.16 +21 29 25.2 20.1   704 – Lincoln Laboratory ETS, New Mexico MPS 45293
2001 11 20.42060 05 00 57.37 +21 29 26.6 19.6   704 – Lincoln Laboratory ETS, New Mexico MPS 45293
2001 12 14.22609 04 36 39.74 +21 29 23.1 18.5   704 – Lincoln Laboratory ETS, New Mexico MPS 45293
2001 12 14.24120 04 36 38.79 +21 29 22.9 19.2   704 – Lincoln Laboratory ETS, New Mexico MPS 45293
2001 12 14.25631 04 36 37.83 +21 29 23.0 19.0   704 – Lincoln Laboratory ETS, New Mexico MPS 45293
2001 12 17.22524 04 33 45.94 +21 29 10.0 18.7   704 – Lincoln Laboratory ETS, New Mexico MPS 45293
2001 12 17.24079 04 33 45.07 +21 29 09.5 19.8   704 – Lincoln Laboratory ETS, New Mexico MPS 45293
2001 12 17.25607 04 33 44.12 +21 29 10.5 19.2   704 – Lincoln Laboratory ETS, New Mexico MPS 45293
2001 12 17.27116 04 33 43.22 +21 29 10.3 19.3   704 – Lincoln Laboratory ETS, New Mexico MPS 45293
2001 12 17.28627 04 33 42.35 +21 29 10.5 19.4   704 – Lincoln Laboratory ETS, New Mexico MPS 45293
2001 12 18.21717 04 32 51.12 +21 29 08.5 20.4 V 691 – Steward Observatory, Kitt Peak-Spacewatch MPS 45293
2001 12 18.23931 04 32 49.83 +21 29 08.7 20.0 V 691 – Steward Observatory, Kitt Peak-Spacewatch MPS 45293
2001 12 18.26146 04 32 48.56 +21 29 08.5 19.9 V 691 – Steward Observatory, Kitt Peak-Spacewatch MPS 45293
2003 06 01.01684 14 25 28.33 -12 18 21.0 20.0 R 807 – Cerro Tololo Observatory, La Serena MPS 178295
2003 06 01.10585 14 25 24.84 -12 18 11.2   807 – Cerro Tololo Observatory, La Serena MPS 178295
2006 01 06.441506 10 05 48.610 +14 45 02.57 21.33 V 645 – Apache Point-Sloan Digital Sky Survey MPS 390225
2006 01 06.444978 10 05 48.553 +14 45 03.20 22.10   645 – Apache Point-Sloan Digital Sky Survey MPS 390225
2006 01 25.28733 09 55 35.69 +16 14 48.0   691 – Steward Observatory, Kitt Peak-Spacewatch MPS 160306
2006 01 25.30461 09 55 34.81 +16 14 54.2   691 – Steward Observatory, Kitt Peak-Spacewatch MPS 160306
2006 01 25.32188 09 55 33.93 +16 15 00.3   691 – Steward Observatory, Kitt Peak-Spacewatch MPS 160306
2006 01 26.35192 09 54 42.48 +16 21 05.4 19.6 V 703 – Catalina Sky Survey MPS 160306
2006 01 26.35943 09 54 42.04 +16 21 07.4 20.1 V 703 – Catalina Sky Survey MPS 160306
2006 01 26.36696 09 54 41.72 +16 21 09.0 20.3 V 703 – Catalina Sky Survey MPS 160306
2006 01 26.37455 09 54 41.25 +16 21 12.6 20.9 V 703 – Catalina Sky Survey MPS 160306
2006 01 31.27978 09 50 18.80 +16 50 47.7 20.2 V 691 – Steward Observatory, Kitt Peak-Spacewatch MPS 161678
2006 01 31.29709 09 50 17.78 +16 50 53.9 20.2 V 691 – Steward Observatory, Kitt Peak-Spacewatch MPS 161678
2006 01 31.31438 09 50 16.76 +16 51 00.3 19.9 V 691 – Steward Observatory, Kitt Peak-Spacewatch MPS 161678
2006 02 22.22370 09 28 43.68 +18 51 15.5 20.1 V 703 – Catalina Sky Survey MPS 163673
2006 02 22.23657 09 28 42.88 +18 51 17.3 20.2 V 703 – Catalina Sky Survey MPS 163673
2006 02 22.24485 09 28 42.42 +18 51 20.0 19.9 V 703 – Catalina Sky Survey MPS 163673
2006 02 22.25312 09 28 42.02 +18 51 22.2 19.8 V 703 – Catalina Sky Survey MPS 163673
2006 02 24.12020 09 27 02.75 +18 59 02.8 20.2 V 691 – Steward Observatory, Kitt Peak-Spacewatch MPS 163673
2006 02 24.13820 09 27 01.76 +18 59 07.5 20.7 V 691 – Steward Observatory, Kitt Peak-Spacewatch MPS 163673
2006 02 24.15619 09 27 00.80 +18 59 11.7 20.6 V 691 – Steward Observatory, Kitt Peak-Spacewatch MPS 163673
2006 03 05.10370 09 20 10.95 +19 27 44.8 20.3 V 691 – Steward Observatory, Kitt Peak-Spacewatch MPS 165968
2006 03 05.11962 09 20 10.33 +19 27 47.4 20.3 V 691 – Steward Observatory, Kitt Peak-Spacewatch MPS 165968
2006 03 05.13553 09 20 09.65 +19 27 49.7 20.7 V 691 – Steward Observatory, Kitt Peak-Spacewatch MPS 165968
2008 09 03.41421 01 09 40.75 +03 08 54.0 20.6 V 691 – Steward Observatory, Kitt Peak-Spacewatch MPS 255179
2008 09 03.43180 01 09 40.37 +03 08 51.0 20.3 V 691 – Steward Observatory, Kitt Peak-Spacewatch MPS 255179
2008 09 03.44937 01 09 40.04 +03 08 47.4 20.2 V 691 – Steward Observatory, Kitt Peak-Spacewatch MPS 255179
2008 09 28.25260 00 53 49.12 +01 12 41.7 19.4   704 – Lincoln Laboratory ETS, New Mexico MPS 257789
2008 09 28.26475 00 53 48.48 +01 12 36.8 19.6   704 – Lincoln Laboratory ETS, New Mexico MPS 257789
2008 09 28.27690 00 53 47.79 +01 12 34.0 19.7   704 – Lincoln Laboratory ETS, New Mexico MPS 257789
2008 09 28.34586 00 53 43.98 +01 12 09.0 20.1 V G96 – Mt. Lemmon Survey MPS 257789
2008 09 28.35281 00 53 43.58 +01 12 06.5 19.9 V G96 – Mt. Lemmon Survey MPS 257789
2008 09 28.35975 00 53 43.18 +01 12 04.2 19.7 V G96 – Mt. Lemmon Survey MPS 257789
2008 09 28.36664 00 53 42.79 +01 12 01.9 19.7 V G96 – Mt. Lemmon Survey MPS 257789
2008 09 29.28364 00 52 53.60 +01 06 51.4 19.2   704 – Lincoln Laboratory ETS, New Mexico MPS 257789
2008 09 29.29593 00 52 52.97 +01 06 47.9 19.6   704 – Lincoln Laboratory ETS, New Mexico MPS 257789
2008 09 29.30821 00 52 52.22 +01 06 43.8 19.8   704 – Lincoln Laboratory ETS, New Mexico MPS 257789
2008 09 29.32051 00 52 51.56 +01 06 38.7 19.8   704 – Lincoln Laboratory ETS, New Mexico MPS 257789
2008 09 29.33279 00 52 50.81 +01 06 34.7 19.6   704 – Lincoln Laboratory ETS, New Mexico MPS 257789
2008 10 09.31075 00 43 33.38 +00 11 24.2 19.9 V G96 – Mt. Lemmon Survey MPS 259128
2008 10 09.31553 00 43 33.09 +00 11 22.8 19.8 V G96 – Mt. Lemmon Survey MPS 259128
2008 10 09.32032 00 43 32.80 +00 11 21.2 19.9 V G96 – Mt. Lemmon Survey MPS 259128
2008 10 09.32517 00 43 32.55 +00 11 19.8 19.7 V G96 – Mt. Lemmon Survey MPS 259128
2008 10 17.33722 00 36 17.18 -00 27 17.7 19.9 V 691 – Steward Observatory, Kitt Peak-Spacewatch MPS 260218
2008 10 17.37463 00 36 15.14 -00 27 27.4 20.6 V 691 – Steward Observatory, Kitt Peak-Spacewatch MPS 260218
2008 10 17.41204 00 36 13.15 -00 27 36.4 20.5 V 691 – Steward Observatory, Kitt Peak-Spacewatch MPS 260218
2008 10 30.08927 00 26 52.86 -01 08 22.0 20.5 V 691 – Steward Observatory, Kitt Peak-Spacewatch MPS 261326
2008 10 30.11425 00 26 51.93 -01 08 25.2 20.1 V 691 – Steward Observatory, Kitt Peak-Spacewatch MPS 261326
2008 10 30.13565 00 26 51.14 -01 08 28.1 20.0 V 691 – Steward Observatory, Kitt Peak-Spacewatch MPS 261326
2010 02 19.45671 13 11 33.00 -03 48 05.7 21.1 V G96 – Mt. Lemmon Survey MPS 316393
2010 02 19.46325 13 11 32.92 -03 48 04.7 21.1 V G96 – Mt. Lemmon Survey MPS 316393
2010 02 19.46986 13 11 32.85 -03 48 03.9 21.2 V G96 – Mt. Lemmon Survey MPS 316393
2010 02 19.47642 13 11 32.71 -03 48 03.0 20.5 V G96 – Mt. Lemmon Survey MPS 316393
2010 04 14.24637 12 31 31.22 +00 35 08.2 21.1 V G96 – Mt. Lemmon Survey MPS 323289
2010 04 14.25288 12 31 30.93 +00 35 10.2 20.9 V G96 – Mt. Lemmon Survey MPS 323289
2010 04 14.25955 12 31 30.57 +00 35 11.8 20.7 V G96 – Mt. Lemmon Survey MPS 323289
2010 04 14.26617 12 31 30.25 +00 35 13.7 19.9 V G96 – Mt. Lemmon Survey MPS 323289
2012 09 25.43192 05 18 22.14 +21 27 43.7 20.5 V G96 – Mt. Lemmon Survey MPS 433926
2012 09 25.43763 05 18 22.53 +21 27 44.6 20.3 V G96 – Mt. Lemmon Survey MPS 433926
